Weather Roundup
Issued by NWS Chicago, IL

Home | Current Version | Previous Version | Graphics & Text | Print | Product List | Glossary On
Versions: 1 2 3 4 5 6 7 8 9 10 11 12 13 14 15 16 17 18 19 20 21 22 23 24 25 26 27 28 29 30 31 32 33 34 35 36 37 38 39 40 41 42 43 44 45 46 47 48 49 50
000
NZUS59 KLOT 251406
HRRLOT

CHICAGO AREA WEATHER ROUNDUP
NATIONAL WEATHER SERVICE CHICAGO/ROMEOVILLE IL
900 AM CDT SAT OCT 25 2014

NOTE: "FAIR" INDICATES FEW OR NO CLOUDS BELOW 12,000 FEET WITH NO
SIGNIFICANT WEATHER AND/OR OBSTRUCTIONS TO VISIBILITY.

* THESE STATIONS ARE NOT UNDER NWS QUALITY CONTROL. THEY ALSO MAY NOT
  REPORT WEATHER SUCH AS PRECIPITATION OR FOG.

ILZ005-006-012>014-019>023-251500-
NORTHEAST ILLINOIS

CITY           SKY/WX    TMP DP  RH WIND       PRES   REMARKS
OHARE          MOSUNNY   59  54  83 W9        29.92R FOG
MIDWAY         MOSUNNY   61  56  83 W10       29.93R
AURORA         FOG       56  53  90 W9        29.96R VSB 3/4
LANSING*       CLOUDY    57  55  94 SW6       29.94S FOG
JOLIET*        PTSUNNY   57  55  94 W8        29.96R FOG
WAUKEGAN       SUNNY     58  52  80 W9        29.91R
DUPAGE AIRPORT SUNNY     58  54  86 W6        29.94R FOG
WHEELING       SUNNY     61  53  75 NW13      29.94R
KANKAKEE*      CLOUDY    56  55  94 W7        29.97R FOG
MORRIS*        CLOUDY    57  57  97 W9        29.96R FOG
LEWIS AIRPORT* MOSUNNY   58  57  96 W10       29.96R FOG
NORTHERLY IS     N/A     59  54  83 W9          N/A
$$

WIZ051-052-058>065-066-070>072-251500-
SOUTHEAST WISCONSIN

CITY           SKY/WX    TMP DP  RH WIND       PRES   REMARKS
MILWAUKEE      MOSUNNY   58  49  72 NW10      29.90S
KENOSHA*       SUNNY     58  53  84 W10       29.91R
RACINE*        SUNNY     58  51  78 W9        29.91R
BURLINGTON     SUNNY     56  50  79 NW13      29.92R
WAUKESHA       SUNNY     52  50  93 W9        29.92R FOG
WEST BEND      SUNNY     55  46  71 W13G21    29.90R
$$

INZ001>003-010>013-019-020-251500-
NORTHWEST INDIANA

CITY           SKY/WX    TMP DP  RH WIND       PRES   REMARKS
GARY*          MOSUNNY   59  55  88 SW8       29.93S FOG
MICHIGAN CITY* NOT AVBL
RENSSELAER*    NOT AVBL
VALPARAISO     CLOUDY    54  53  97 W8        29.94S FOG
$$

LMZ740>746-251500-
SOUTHERN LAKE MICHIGAN

STATION/POSITION TIME  SKY/WX   TEMP WIND        PRES    VSBY
                                AIR  DIR/SP/G
                 (UTC)          (F)  (DEG/KT/KT) (MB)    (MI)
HARRISON CRIB    1300            58  260/ 13/ 15   N/A
BURNHAM HARBOR   1400            60  280/ 11/ 12   N/A
CALUMET HARBOR   1400            59  240/  5/  8 1012.0R
BURNS HARBOR     NOT AVBL
MICHIGAN CITY    1400            55  210/ 13/ 15   N/A
$$

ABBREVIATIONS USED IN REMARKS
   TC - TEMPERATURE IN CELSIUS
  WCI - WIND CHILL INDEX
   HX - HEAT INDEX
  VSB - VISIBILITY
$$



USA.gov is the U.S. government's official web portal to all federal, state and local government web resources and services.